CAPE
95 97 112 20 12 3 1 0 0 0 0 0 0 0 0 2 0 0 2 1 0 0 34 6 0 0 1 90 182 210 200 344 320 294 124 20 6 3 2 2 3 6 3 1 0 0 0 0 0
163 97 2 11 10 18 5 1 0 0 0 0 0 0 11 16 0 0 1 2 0 1 15 0 0 0 0 73 31 70 68 43 23 16 45 61 12 3 2 7 5 8 5 2 1 0 0 0 0
11 0 13 16 11 29 23 7 0 1 0 0 0 13 18 3 0 0 2 0 0 7 1 0 0 0 0 73 44 10 3 0 0 0 0 0 0 0 0 0 10 5 5 5 0 0 0 0 0
0 1 0 3 10 18 24 2 0 0 0 0 9 6 4 0 0 1 1 0 0 6 0 0 0 0 0 1 3 0 0 0 0 0 0 0 0 0 0 0 0 0 9 8 0 0 0 0 0
0 0 8 0 11 33 40 8 13 1 0 0 0 2 0 1 3 3 0 0 0 9 1 37 0 0 7 59 0 0 0 0 0 0 0 0 0 0 0 0 0 0 0 0 0 0 0 0 0
0 0 0 0 0 0 4 0 24 0 0 0 0 0 0 1 1 2 0 0 7 11 0 11 0 0 0 0 0 0 0 0 0 0 0 0 0 0 0 0 0 0 0 0 0 0 0 0 0
0 0 0 0 2 3 0 0 1 0 0 0 0 0 0 1 0 1 0 0 11 23 20 6 0 0 0 0 0 0 0 0 0 0 0 0 0 0 0 0 0 0 0 0 0 0 0 0 0
0 0 0 7 12 0 0 0 0 0 0 0 0 0 0 1 1 1 0 2 2 4 20 23 15 0 0 1 0 0 1 0 0 0 0 0 0 0 0 0 0 0 0 0 0 0 0 0 0
0 0 0 16 9 0 0 0 0 0 0 0 0 0 0 2 2 0 0 0 1 2 1 2 11 6 0 11 5 1 0 1 0 0 0 0 0 0 0 0 0 0 0 0 0 0 0 0 0
0 0 0 0 0 0 0 0 0 0 0 0 0 0 2 4 0 0 0 0 0 1 1 0 4 3 0 1 6 7 4 14 19 11 6 0 0 0 0 0 0 0 0 0 0 0 0 0 0
0 0 0 0 0 0 0 0 0 0 0 0 0 0 0 3 0 0 0 0 0 0 1 0 2 2 4 2 5 1 0 0 1 0 2 0 0 0 0 0 0 0 0 0 0 0 0 0 0
0 0 0 0 0 0 0 0 0 0 0 0 0 0 1 1 0 0 0 0 0 0 0 0 2 1 1 0 0 0 0 0 0 0 0 0 0 0 0 0 0 0 0 0 0 0 0 0 0
0 0 0 0 0 0 0 0 0 0 0 0 0 0 0 2 0 0 0 0 0 0 0 0 0 0 0 0 0 0 0 0 0 0 0 0 0 0 0 0 0 0 0 0 0 1 1 1 1
1 0 0 0 0 0 0 0 0 0 0 0 0 0 3 2 2 0 1 0 0 0 0 0 0 0 0 0 0 0 0 0 0 0 0 0 0 0 0 0 0 0 1 1 2 2 10 15 21
21 5 0 0 0 0 0 0 0 0 0 0 0 0 8 6 2 1 0 0 0 0 0 0 0 0 0 0 0 0 0 0 8 6 17 13 0 13 14 18 23 7 0 3 11 15 28 17 26
0 3 11 0 0 0 0 0 0 0 1 1 0 0 7 9 5 92 37 9 0 0 0 0 0 0 0 6 50 59 50 34 34 29 27 20 11 10 27 34 42 5 6 9 14 7 6 5 0
7 4 1 0 0 0 0 0 0 0 0 24 11 3 5 48 122 130 75 44 8 0 0 9 11 52 70 79 92 92 43 32 17 1 0 0 0 0 0 3 1 0 0 0 0 0 0 0 0
1 4 6 4 0 0 0 0 0 0 0 13 44 68 52 76 131 145 99 65 51 58 87 110 82 59 8 25 41 30 3 0 0 0 0 0 0 0 0 0 0 0 0 0 0 0 0 0 0
2 2 2 4 0 0 0 0 0 0 0 4 44 65 52 103 66 90 67 12 0 0 17 41 43 15 46 39 51 44 4 0 0 0 0 0 0 0 0 0 0 0 0 0 0 0 0 0 0
6 2 3 2 0 0 0 0 0 0 0 1 44 77 68 96 0 0 0 0 0 0 0 0 0 0 0 0 1 0 0 0 0 0 0 0 0 0 0 0 0 0 0 0 0 0 0 0 0
1 2 5 1 0 0 0 0 0 0 0 0 9 103 115 30 0 0 0 0 0 0 0 0 0 0 0 0 0 0 0 0 0 0 0 0 0 0 0 0 0 0 0 0 0 0 0 0 0
1 2 6 0 0 1 0 0 0 0 0 0 0 41 102 20 0 0 0 0 0 0 0 0 0 0 0 0 0 0 0 0 0 0 0 0 0 0 0 0 0 0 0 0 0 0 0 0 0
2 8 8 1 2 2 0 15 0 0 0 0 0 0 41 0 0 0 0 0 0 0 0 0 0 0 0 0 0 0 0 0 0 0 0 0 0 0 0 0 0 0 0 0 0 0 0 0 0
28 8 6 9 6 0 0 3 0 0 0 0 0 0 0 0 0 0 0 0 0 0 0 0 0 0 0 0 0 0 0 0 0 0 0 0 0 0 0 0 0 0 0 0 0 0 0 0 0
16 12 0 0 0 0 0 0 1 0 0 0 0 0 0 0 0 0 0 0 0 0 0 0 0 0 0 0 0 0 0 0 0 0 0 0 0 0 0 0 0 0 0 0 0 0 0 0 0
2 3 0 0 0 0 0 0 0 0 0 0 0 0 0 0 0 0 0 0 0 0 0 0 0 0 0 0 0 0 0 0 0 0 0 0 0 0 0 0 0 0 0 0 0 0 0 0 0
1 0 0 0 0 0 0 0 0 0 0 0 0 0 0 0 0 0 0 0 0 0 0 0 0 0 0 0 0 0 0 0 0 0 0 0 0 0 0 0 0 0 0 0 0 0 0 0 0
0 0 0 0 0 0 0 0 0 0 0 0 0 0 0 0 0 0 0 0 0 0 0 0 0 0 0 0 0 0 0 0 0 0 0 0 0 0 0 0 0 0 0 0 0 0 0 0 0
1 0 0 0 0 0 0 0 0 0 0 0 0 0 0 0 0 0 0 0 0 0 0 0 0 0 0 0 0 0 0 0 0 0 0 0 0 0 0 0 0 0 0 0 0 0 0 0 0
0 0 0 0 0 0 0 0 0 0 0 0 0 0 0 0 0 0 0 0 0 0 0 0 0 0 0 0 0 0 0 0 0 0 0 0 0 0 0 0 0 0 0 0 0 0 0 0 0
CIN
-172 -172 -186 -201 -39 -5 -2 0 0 0 0 0 0 0 0 -18 0 0 -1 0 0 -1 -139 0 0 0 -150 -77 -46 -41 -44 -21 -12 -16 -48 -122 0 0 0 0 0 0 0 0 0 0 0 0 0
-112 -145 -47 -92 -13 -2 -2 -3 0 0 0 0 0 0 -42 -71 0 0 0 0 0 0 -1 0 0 0 0 -81 -113 -82 -85 -105 -150 -64 -34 -112 -91 0 0 0 -1 0 0 0 0 0 0 0 0
-231 -8 -90 -40 -16 -2 -2 -20 0 -21 0 0 0 -49 -66 -11 0 0 0 0 0 -1 0 0 0 0 0 -60 -78 -134 -47 0 0 0 0 0 0 0 0 0 -2 0 -1 0 0 0 0 0 0
0 -128 0 -12 -4 -20 -19 -8 0 -2 0 0 -74 -29 -104 0 0 0 -1 0 0 -1 0 0 0 0 0 -4 -55 0 0 0 0 0 0 0 0 0 0 0 0 0 -2 0 0 0 0 0 0
0 0 -32 0 -15 -30 -44 -55 -80 -11 0 0 0 -10 0 0 0 0 0 0 0 -1 0 -108 0 0 -21 -71 0 0 0 0 0 0 0 0 0 0 0 0 0 0 0 0 0 0 0 0 0
0 0 -4 0 0 -5 -34 0 -83 0 0 0 0 0 0 0 0 -1 0 0 0 -1 0 0 0 0 0 0 0 0 0 0 0 0 0 0 0 0 0 0 0 0 0 0 0 0 0 0 0
0 -8 0 0 -24 -25 0 0 -23 0 0 0 0 0 0 -1 0 -1 0 0 0 0 0 0 0 0 0 0 0 0 0 0 0 0 0 0 0 0 0 0 0 0 0 0 0 0 0 0 0
0 0 0 -52 -19 0 0 0 0 0 0 0 0 0 0 0 0 -1 0 0 -2 -2 0 0 0 0 0 0 0 0 -1 0 0 0 0 0 0 0 0 0 0 0 0 0 0 0 0 0 0
0 0 0 -39 -39 0 0 0 0 0 0 0 0 0 0 0 -1 0 0 -3 0 0 -6 -3 0 0 0 -1 0 0 0 0 0 0 0 0 0 0 0 0 0 0 0 0 0 0 0 0 0
0 0 0 0 0 0 0 0 0 0 0 0 0 0 0 0 0 0 0 0 0 0 0 0 0 0 0 0 0 0 0 0 0 0 0 0 0 0 0 0 0 0 0 0 0 0 0 0 0
0 0 0 0 0 0 0 0 0 0 0 0 0 0 0 0 0 0 0 0 0 0 0 0 0 0 0 0 0 0 0 0 0 0 0 0 0 0 0 0 0 0 0 0 0 0 0 0 0
0 0 0 0 0 0 0 0 0 0 0 0 0 0 0 0 0 0 0 0 0 0 0 0 -1 0 0 0 0 0 0 0 0 0 0 0 0 0 0 0 0 0 0 0 0 0 0 0 0
-1 0 0 0 0 0 0 0 0 0 0 0 0 0 0 0 0 0 0 0 0 0 0 0 0 0 0 0 0 0 0 0 0 0 0 0 0 0 0 0 0 0 0 0 0 -3 -4 -4 -3
-15 0 0 0 0 0 0 0 0 0 0 0 0 0 -100 0 0 0 0 0 0 0 0 0 0 0 0 0 0 0 0 0 0 0 0 0 0 0 0 0 0 0 -16 -39 -21 -9 -33 -12 -14
-8 -44 0 0 0 0 0 0 0 0 0 0 0 0 -250 -227 0 0 0 0 0 0 0 0 0 0 0 0 0 0 0 0 -24 -23 -78 -74 0 -83 -55 -26 -7 -7 0 -9 -4 -28 -13 -17 -9
-14 -11 0 0 0 0 0 0 0 0 -103 -39 0 0 -269 -225 -43 -52 -58 -72 0 0 0 0 0 0 0 -14 -56 -39 -48 -50 -63 -80 -83 -97 -104 -89 -43 -13 -8 0 0 -3 0 -4 -7 -6 0
0 0 0 -1 0 0 0 0 0 0 0 -162 -234 -119 -214 -146 -74 -51 -65 -63 -40 0 0 -36 -38 -76 -58 -52 -40 -49 -61 -67 -75 -20 0 0 0 0 0 0 0 0 0 0 0 0 0 0 0
0 0 0 0 0 0 0 0 0 0 0 -132 -163 -157 -178 -123 -83 -57 -87 -91 -86 -91 -78 -59 -62 -73 -21 -77 -73 -83 -28 0 0 0 0 0 0 0 0 0 0 0 0 0 0 0 0 0 0
-1 0 0 -1 0 0 0 0 0 0 0 -135 -147 -176 -164 -106 -120 -92 -112 -164 -1 0 -142 -125 -128 -173 -138 -109 -80 -79 -13 0 0 0 0 0 0 0 0 0 0 0 0 0 0 0 0 0 0
0 0 0 -1 0 0 0 0 0 0 0 -93 -122 -150 -152 -143 0 0 0 0 0 0 0 0 0 0 0 0 -36 0 0 0 0 0 0 0 0 0 0 0 0 0 0 0 0 0 0 0 0
0 0 -1 0 0 0 0 0 0 0 0 0 -167 -122 -126 -202 0 0 0 0 0 0 0 0 0 0 0 0 0 0 0 0 0 0 0 0 0 0 0 0 0 0 0 0 0 0 0 0 0
0 -2 0 0 -1 0 0 0 0 0 0 0 0 -152 -131 -195 0 0 0 0 0 0 0 0 0 0 0 0 0 0 0 0 0 0 0 0 0 0 0 0 0 0 0 0 0 0 0 0 0
0 -6 -1 -2 0 0 0 -1 0 0 0 0 0 0 -128 0 0 0 0 0 0 0 0 0 0 0 0 0 0 0 0 0 0 0 0 0 0 0 0 0 0 0 0 0 0 0 0 0 0
-15 -7 -3 -2 0 0 0 0 0 0 0 0 0 0 0 0 0 0 0 0 0 0 0 0 0 0 0 0 0 0 0 0 0 0 0 0 0 0 0 0 0 0 0 0 0 0 0 0 0
-7 0 0 0 0 0 0 0 -2 0 0 0 0 0 0 0 0 0 0 0 0 0 0 0 0 0 0 0 0 0 0 0 0 0 0 0 0 0 0 0 0 0 0 0 0 0 0 0 0
-3 0 0 0 0 0 0 0 0 0 0 0 0 0 0 0 0 0 0 0 0 0 0 0 0 0 0 0 0 0 0 0 0 0 0 0 0 0 0 0 0 0 0 0 0 0 0 0 0
0 0 0 0 0 0 0 0 0 0 0 0 0 0 0 0 0 0 0 0 0 0 0 0 0 0 0 0 0 0 0 0 0 0 0 0 0 0 0 0 0 0 0 0 0 0 0 0 0
0 0 0 0 0 0 0 0 0 0 0 0 0 0 0 0 0 0 0 0 0 0 0 0 0 0 0 0 0 0 0 0 0 0 0 0 0 0 0 0 0 0 0 0 0 0 0 0 0
0 0 0 0 0 0 0 0 0 0 0 0 0 0 0 0 0 0 0 0 0 0 0 0 0 0 0 0 0 0 0 0 0 0 0 0 0 0 0 0 0 0 0 0 0 0 0 0 0
0 0 0 0 0 0 0 0 0 0 0 0 0 0 0 0 0 0 0 0 0 0 0 0 0 0 0 0 0 0 0 0 0 0 0 0 0 0 0 0 0 0 0 0 0 0 0 0 0
Wind_Speed
10 11 15 18 19 19 18 16 17 17 16 16 15 19 18 13 17 15 12 14 12 23 20 22 22 22 20 16 13 13 13 12 8 5 9 12 16 19 20 21 20 20 20 21 21 21 20 16 17
15 14 16 18 20 20 17 16 18 16 15 9 12 14 16 15 12 7 6 11 13 14 16 18 20 17 17 14 12 11 11 8 5 6 8 10 14 17 19 20 20 20 20 20 21 20 18 18 18
16 16 19 20 20 21 17 17 16 13 12 16 15 15 15 15 11 10 9 7 9 6 6 8 14 14 14 11 10 9 9 8 7 8 9 12 14 16 17 18 18 19 19 19 20 19 19 19 20
18 17 18 23 22 19 17 15 14 11 16 17 15 12 14 16 10 12 1 8 9 4 4 7 12 14 14 12 11 10 9 9 9 9 11 12 13 15 16 17 18 18 19 19 20 20 21 21 21
17 18 24 24 22 18 19 16 14 13 13 13 16 13 12 14 14 1 7 5 6 4 2 5 7 11 12 11 10 9 9 9 10 10 11 12 13 15 16 17 18 18 19 20 21 21 22 23 23
21 20 26 26 22 19 17 17 15 17 15 14 14 10 11 14 11 3 11 8 5 5 3 2 3 5 6 7 8 9 9 9 10 10 11 12 14 15 16 17 18 19 20 21 21 22 22 23 23
22 24 26 24 21 18 18 16 16 16 16 16 11 12 14 17 13 3 11 7 9 5 5 3 2 4 4 5 6 7 9 10 11 11 12 13 15 15 16 17 18 19 19 20 20 21 22 23 24
21 24 25 23 22 20 16 13 16 16 15 13 15 14 13 15 6 4 3 6 9 30 16 14 7 4 4 5 6 7 9 10 11 12 13 14 15 16 17 18 18 20 20 20 21 21 22 23 25
20 26 27 23 20 18 16 17 14 15 12 15 15 13 13 4 5 5 5 4 4 8 14 15 8 4 5 6 6 8 9 10 11 12 13 14 15 17 18 19 20 21 20 20 21 22 22 23 21
28 27 26 20 17 18 17 19 15 15 14 16 14 11 3 5 9 9 9 8 4 4 1 4 2 8 7 6 7 8 9 11 11 13 14 15 16 17 19 19 20 20 20 20 21 22 23 22 24
29 29 23 21 18 18 18 16 17 17 18 18 16 7 1 5 6 6 5 4 6 5 2 2 7 7 6 7 7 8 10 11 12 13 14 15 16 17 17 18 18 20 20 21 22 23 23 25 25
31 31 25 23 20 20 20 20 19 21 17 16 16 3 2 6 7 6 5 5 5 4 3 6 7 7 7 6 7 8 10 10 11 12 14 15 16 17 18 19 20 20 21 23 23 24 25 25 25
38 30 29 27 26 25 23 22 22 23 20 17 9 2 2 5 6 7 7 6 2 3 5 8 8 7 5 6 7 8 9 11 12 13 14 16 17 19 20 21 21 22 22 23 24 24 25 26 25
38 38 34 30 29 28 26 24 21 18 16 13 10 7 3 5 6 9 10 9 5 3 2 2 3 3 4 6 7 8 10 11 13 14 16 17 18 20 21 21 21 22 23 24 24 26 27 27 28
39 37 37 39 31 28 23 27 24 19 16 14 13 11 6 6 8 8 7 7 7 7 4 0 1 3 5 6 7 8 10 12 14 16 17 19 20 21 22 23 24 25 25 26 27 28 29 29 29
34 36 38 31 26 25 26 28 22 19 18 17 14 12 10 9 9 8 7 8 8 8 5 2 2 3 3 5 7 9 11 13 15 17 19 21 22 22 23 24 26 26 26 27 28 29 30 30 31
30 38 42 32 29 26 27 28 23 21 19 18 16 13 11 12 10 9 8 8 8 6 5 6 5 4 6 7 9 10 12 14 16 18 20 22 23 24 24 25 26 27 27 28 30 30 31 31 31
34 32 38 37 31 30 30 30 24 21 20 19 17 15 12 13 11 10 9 9 9 9 8 7 7 6 7 9 10 11 12 15 17 19 21 22 24 25 25 26 27 27 28 29 31 30 30 29 32
28 40 32 36 30 34 37 33 30 25 22 22 19 17 15 14 14 13 11 10 9 10 9 8 8 9 8 9 10 11 13 14 17 19 21 23 24 25 26 25 26 26 28 29 30 30 30 31 33
25 32 42 31 32 32 36 40 35 29 27 26 22 19 17 15 15 14 13 12 12 10 10 10 10 11 11 11 12 13 11 15 16 19 21 23 24 25 25 25 26 27 27 29 30 32 32 31 32
36 34 27 31 32 36 33 41 36 33 29 27 26 21 18 17 16 15 15 14 13 12 11 11 11 12 12 11 11 11 11 14 17 20 21 23 23 24 25 25 26 27 27 29 30 32 33 33 33
37 36 29 27 27 37 36 40 38 35 32 29 26 23 19 18 16 15 14 14 14 13 12 11 11 11 12 11 11 12 15 16 17 17 19 21 23 24 25 26 26 27 28 29 30 31 32 33 35
33 22 25 25 26 25 30 40 38 32 36 30 27 24 22 19 17 16 14 13 12 12 12 11 10 11 12 12 12 13 15 14 15 16 18 20 22 25 26 26 27 28 29 30 31 32 33 33 33
22 21 22 24 26 33 31 35 40 35 32 30 29 25 22 20 17 15 14 12 11 11 11 11 11 11 11 11 12 13 13 14 16 17 19 21 22 24 26 27 28 29 30 31 32 32 32 33 33
30 28 30 31 31 32 26 33 37 30 32 31 27 27 23 20 18 16 14 13 11 10 10 10 10 10 9 9 11 12 14 15 16 19 20 21 23 24 27 28 29 31 32 32 31 31 32 33 34
39 30 31 34 33 32 23 32 29 29 28 27 23 21 20 19 19 16 15 12 11 10 9 8 8 10 14 14 13 15 16 16 17 19 21 22 23 25 26 28 29 30 31 31 30 31 32 32 33
31 35 26 24 24 27 27 29 27 22 22 19 21 22 20 18 17 14 13 12 10 9 9 8 8 10 12 16 15 15 15 16 17 20 21 23 24 25 27 27 28 29 30 30 30 32 33 32 33
30 21 31 29 34 35 32 33 32 25 20 18 16 17 17 16 13 10 10 12 13 9 10 9 9 11 15 14 13 13 15 17 19 21 23 23 24 26 26 27 27 28 29 30 30 31 32 33 33
25 29 27 26 29 33 33 31 23 24 19 14 11 11 13 14 12 10 8 8 13 9 14 11 10 10 10 11 13 14 17 18 20 22 23 24 24 25 26 27 28 29 29 30 31 32 33 33 34
24 26 26 32 32 30 27 27 21 19 14 10 8 9 11 11 9 8 7 5 6 7 8 9 9 7 9 12 15 16 17 19 21 23 23 22 24 25 26 27 28 29 30 31 32 33 33 33 33
Wind_Direction
300 283 271 250 248 247 249 255 246 239 235 235 231 207 211 227 211 224 224 218 81 107 100 109 109 105 97 80 61 53 54 55 39 14 25 26 33 39 39 44 39 32 33 34 34 30 14 341 338
271 279 265 252 246 243 251 257 248 247 248 265 246 237 227 230 242 256 243 229 87 86 92 95 102 95 93 79 64 53 46 34 7 349 348 1 11 28 40 47 51 37 37 39 33 18 356 341 335
271 270 253 247 246 243 250 258 255 258 254 235 239 240 234 231 236 233 245 80 82 69 63 68 85 89 91 73 61 49 35 17 348 333 338 350 3 20 32 35 30 32 30 31 20 2 348 337 330
266 261 260 242 241 250 255 265 258 255 247 242 244 265 244 237 244 251 81 87 83 68 62 74 81 89 89 75 66 49 29 5 343 332 341 354 4 18 24 28 30 25 13 20 9 4 344 335 329
265 257 244 242 242 251 253 264 254 250 253 253 248 264 266 239 245 357 87 89 86 77 71 69 76 80 80 72 59 44 24 4 344 340 347 358 9 16 21 28 29 24 15 12 6 3 349 340 334
254 251 240 238 242 249 258 261 254 248 252 256 265 275 269 246 243 88 95 88 86 86 83 71 62 54 55 52 45 40 22 9 6 3 1 5 11 16 22 20 17 10 6 5 1 356 353 348 346
254 242 239 244 243 248 256 262 251 249 252 254 271 271 261 237 234 112 99 86 90 79 82 72 47 37 29 22 20 18 13 12 12 11 9 10 12 14 12 10 3 358 8 16 13 4 359 354 349
257 243 240 244 241 246 255 259 252 252 257 261 257 267 269 239 221 126 121 238 237 164 123 101 78 47 13 358 349 355 357 2 4 8 10 9 11 13 14 8 3 359 6 9 8 6 1 356 346
254 240 235 241 243 248 256 251 258 262 267 258 261 270 269 157 148 133 121 238 249 251 111 115 85 44 27 17 8 352 351 1 4 7 7 9 5 2 358 353 350 352 359 4 3 1 359 355 2
238 237 236 246 250 252 256 253 255 258 261 260 264 277 310 138 136 130 126 118 121 111 106 282 12 83 64 35 23 8 354 355 5 9 7 3 360 358 352 357 355 360 2 6 4 360 358 1 353
235 235 240 243 249 256 257 259 254 254 255 256 259 274 237 146 160 155 143 136 122 114 265 284 96 85 70 53 32 1 350 358 3 357 5 359 3 8 11 9 10 4 5 1 358 356 354 350 348
235 235 240 245 249 255 256 260 257 252 260 263 266 273 171 155 164 165 154 133 125 121 112 106 101 87 78 30 37 21 24 23 15 15 3 8 6 6 4 360 357 359 357 354 353 351 348 346 347
233 235 240 247 249 253 257 255 258 253 257 266 278 275 191 177 202 230 243 248 225 128 112 111 104 90 60 43 13 14 13 30 20 16 10 4 1 356 352 353 354 353 353 352 351 349 347 345 345
231 234 238 246 245 250 251 254 258 263 262 264 263 268 234 188 201 233 242 245 239 240 126 97 77 24 23 27 35 30 29 24 14 6 359 358 353 349 350 353 353 352 349 347 346 343 341 341 340
234 233 239 241 245 246 249 249 250 261 258 258 259 259 250 223 227 231 233 241 243 251 258 184 27 48 52 38 24 22 21 9 359 353 350 349 348 346 346 346 345 343 343 342 340 340 340 339 339
234 235 234 237 240 245 242 241 250 258 253 252 257 256 249 236 232 231 237 246 250 256 261 284 352 44 29 1 2 356 355 352 348 345 345 343 344 345 344 342 341 342 343 343 342 341 340 340 338
234 232 229 238 240 243 241 242 249 252 251 253 255 255 248 242 233 234 239 246 254 262 273 282 294 313 323 330 334 343 347 346 345 345 344 345 346 345 344 343 343 343 344 343 342 341 341 339 339
234 231 229 232 236 238 241 241 249 255 254 254 255 253 247 241 234 237 242 250 258 265 275 284 293 309 318 322 329 337 343 344 346 346 347 346 346 346 346 346 346 346 345 344 343 343 345 344 342
240 231 234 231 238 239 239 244 247 253 253 252 252 250 247 243 248 247 250 254 259 269 275 282 289 296 306 315 321 328 333 340 345 348 349 348 347 347 347 348 348 350 349 348 347 346 345 343 343
241 237 231 240 241 243 243 243 247 250 251 251 251 248 246 244 246 249 251 258 264 270 278 284 290 297 304 310 317 325 336 341 345 348 349 350 351 352 352 352 352 351 351 350 348 346 342 343 345
242 240 236 238 241 246 247 246 246 247 250 252 250 251 247 247 245 249 253 259 266 272 280 287 294 301 309 317 324 333 340 340 338 340 345 349 353 353 354 355 355 353 352 349 348 347 345 341 342
243 243 247 240 239 242 239 246 245 243 246 249 249 247 246 249 252 253 255 260 267 276 286 293 300 308 312 316 321 322 321 325 331 341 347 350 353 352 352 354 355 353 352 350 349 348 344 343 339
245 243 241 243 242 248 243 246 245 244 243 245 247 248 248 250 253 254 258 263 271 279 286 296 305 313 320 323 328 330 327 335 340 344 347 350 350 353 352 353 354 352 350 349 347 345 344 344 341
238 242 249 249 248 246 244 245 246 245 244 245 247 249 250 251 254 258 262 265 271 280 289 299 306 317 325 334 346 342 337 338 337 340 341 343 346 348 349 350 350 349 348 345 344 344 345 344 343
235 233 239 242 245 248 251 250 251 254 251 251 246 247 249 251 253 255 257 261 267 274 285 297 309 320 344 345 359 346 340 337 338 337 338 340 341 343 344 346 346 345 344 344 346 347 346 345 344
228 228 236 240 243 249 255 252 259 258 260 257 250 248 247 248 252 256 262 264 266 275 283 296 310 320 323 327 329 333 327 333 335 339 340 342 342 342 346 345 346 345 346 347 349 348 347 347 346
228 232 245 248 254 251 253 262 270 271 261 258 251 245 244 245 249 253 262 270 266 280 280 291 309 321 331 328 334 329 330 338 339 339 341 341 343 343 345 346 346 348 349 349 348 348 348 349 348
237 239 241 249 245 250 256 259 260 265 263 258 251 242 237 237 240 242 258 275 272 274 285 301 307 311 327 315 333 329 330 338 336 338 341 343 344 344 345 348 351 350 349 349 349 349 349 348 347
231 238 246 248 251 251 254 262 273 271 263 259 246 235 225 224 229 242 260 277 272 286 291 298 302 313 318 324 330 332 329 336 336 337 341 342 346 350 350 350 349 348 349 349 348 347 347 347 346
247 243 244 246 248 253 264 269 277 279 268 253 238 230 228 230 237 248 253 249 278 288 294 304 299 316 322 323 327 329 337 338 336 340 348 353 351 350 349 348 347 347 347 347 347 347 347 347 347